Вернуться в каталог

SPARK 2

АктивенНаукаSSO
NORAD 41901·PAYLOAD·🇨🇳 China

Запущен Dec 21, 2016 с Jiuquan Satellite Launch Center

Loading…

Ближайшие Пролёты (ближайшие 24 часа)

TLE

СвежийSource: Space-Track

Эпоха: Sep 14, 2026, 04:58 UTC

1 41901U 16081D   26257.20720103  .00000419  00000-0  99169-4 0  9990
2 41901  98.5577 249.6642 0026283  51.6599 308.6956 14.59242799517100

Отслеживайте SPARK 2 в реальном времени с AllMySat

Download on the App Store